User: anonymous   Login
Location: Freiburg+im+Breisgau
(48.0359°N, 7.8195°E)
Time: 15:59:25
(UTC+02:00)
Language:

ISS - Orbit

View from above orbital plane
View from above orbital plane
View from above satellite
View from above satellite

Ground track
Ground track

The orbit data is extracted from the following two-line orbital elements,

1 25544U 98067A   18112.51491989  .00016717  00000-0  10270-3 0  9028
2 25544  51.6374 296.2488 0002744    .3943 359.7212 15.54143424 29859
Epoch (UTC): 22 April 2018 12:21:29
Eccentricity: 0.0002744
inclination: 51.6374°
perigee height: 403 km
apogee height: 406 km
right ascension of ascending node: 296.2488°
argument of perigee: 0.3943°
revolutions per day: 15.54143424
mean anomaly at epoch: 359.7212°
orbit number at epoch: 2985

The dashed part of the orbit path shows where the satellite is in the earth's shadow,  

DLR